#timestamp,LO_Frequency,Hit,StdDev 
1525788015.6,286047000.0,N
1525788035.4,286047001.2,N
1525788055.2,286047000.5,N
1525788075.1,286047001.1,N
1525788076.0,286047001.1,N
1525788095.8,286047000.4,N
1525788115.7,286047000.2,N
1525788135.5,286047002.8,N
1525788155.3,286046999.7,N
1525788175.2,286047000.2,N
1525788195.0,286047000.0,N
1525788195.9,286047000.0,N
1525788215.8,286047000.3,N
1525788235.6,286047000.2,N
1525788255.4,286047000.5,N
1525788275.3,286047001.0,N
1525788295.1,286047001.0,N
1525788315.8,286046999.0,N
1525788335.7,286046999.5,N
1525788355.5,286046999.3,N
1525788375.3,286046999.0,N
1525788395.2,286046999.3,N
1525788415.0,286046999.4,N
1525788415.9,286046999.4,N
1525788435.8,286046996.5,Y
1525788455.6,286046997.0,P
1525788475.4,286046997.1,N
1525788495.3,286046997.6,N
1525788515.1,286046998.7,N
1525788535.9,286046998.3,N
1525788555.7,286046998.3,N
1525788575.5,286047000.3,N
1525788595.4,286047002.3,N
1525788615.2,286047000.3,N
1525788635.1,286046998.9,N
1525788636.0,286046998.9,N
1525788655.8,286046998.5,N
1525788675.6,286046998.3,N
1525788695.5,286046998.7,N
1525788715.3,286046999.0,N
1525788735.1,286046998.8,N
1525788755.9,286046998.7,N
1525788775.7,286046996.8,N
1525788795.6,286046996.8,N
1525788815.4,286046996.8,N
1525788835.2,286046999.6,N
1525788855.1,286046998.6,N
1525788856.0,286046998.6,N
1525788875.8,286047002.8,N
1525788895.6,286047001.2,N
1525788915.5,286047001.0,N
1525788935.3,286046999.7,N
1525788955.2,286047002.2,N
1525788975.9,286047002.0,N
1525788995.7,286047004.3,N
1525789015.6,286047002.5,N
1525789035.4,286047001.3,N
1525789055.3,286047002.5,N
1525789075.1,286046999.7,N
1525789076.0,286046999.7,N
1525789095.8,286046998.1,N
1525789115.7,286046998.1,N
1525789135.5,286046998.1,N
1525789155.3,286047000.4,N
1525789175.2,286047001.1,N
1525789195.0,286046999.3,N
1525789195.9,286046999.3,N
1525789215.8,286046999.0,N
1525789235.6,286046999.5,N
1525789255.4,286046998.8,N
1525789275.3,286046998.2,N
1525789295.1,286047000.6,N
1525789315.8,286047002.6,N
1525789335.7,286047002.3,N
1525789355.5,286047004.0,N
1525789375.4,286047001.7,N
1525789395.2,286047003.7,N
1525789415.0,286047003.8,N
1525789415.9,286047003.8,N
1525789435.8,286047001.7,N
1525789455.6,286047003.9,N
1525789475.5,286047002.3,N
1525789495.3,286047000.2,N
1525789515.1,286046999.7,N
1525789535.9,286047000.9,N
1525789555.7,286047000.5,N
1525789575.5,286047000.7,N
1525789595.4,286046998.1,N
1525789615.2,286046998.4,N
1525789635.1,286046998.3,N
1525789636.0,286046998.3,N
1525789655.8,286046998.2,N
1525789675.6,286047001.0,N
1525789695.5,286047000.0,N
1525789715.3,286047000.3,N
1525789735.2,286046999.9,N
1525789755.9,286047000.4,N
1525789775.7,286047002.8,N
1525789795.6,286046999.7,N
1525789815.4,286047002.6,N
1525789835.2,286047004.4,N
1525789855.1,286047005.5,N
1525789856.0,286047005.5,N
1525789875.8,286047003.4,N
1525789895.7,286047004.4,N
1525789915.5,286047002.2,N
1525789935.3,286047002.1,N
1525789955.2,286047002.4,N
1525789975.0,286047000.2,N
1525789975.9,286047000.2,N
1525789995.8,286047000.1,N
1525790015.6,286047000.2,N
1525790035.4,286047002.0,N
1525790055.3,286047002.6,N
1525790075.1,286047002.4,N
1525790095.8,286047000.7,N
1525790115.7,286047000.1,N
1525790135.5,286047002.6,N
1525790155.4,286047002.3,N
1525790175.2,286047000.6,N
1525790195.0,286047002.4,N
1525790195.9,286047002.4,N
1525790215.8,286047003.9,N
1525790235.6,286047001.3,N
1525790255.5,286047004.4,N
1525790275.3,286047003.3,N
1525790295.1,286047004.2,N
1525790315.9,286047002.1,N
1525790335.7,286047003.4,N
1525790355.5,286047003.3,N
1525790375.4,286047003.7,N
1525790395.2,286047003.4,N
1525790415.1,286047005.8,Y
1525790416.0,286047005.8,P
1525790435.8,286047002.5,N
1525790455.6,286047001.7,N
1525790475.5,286047002.2,N
1525790495.3,286047002.1,N
1525790515.1,286047001.7,N
1525790535.9,286047002.2,N
1525790555.7,286047001.9,N
1525790575.6,286047000.2,N
1525790595.4,286046999.7,N
1525790615.2,286046999.8,N
1525790635.1,286046999.7,N
1525790636.0,286046999.7,N
1525790655.8,286046999.8,N
1525790675.6,286046999.7,N
1525790695.5,286047000.9,N
1525790715.3,286047002.8,N
1525790735.2,286047000.3,N
1525790755.9,286046998.9,N
1525790775.7,286046999.0,N
1525790795.6,286046998.4,N
1525790815.4,286046999.0,N
1525790835.2,286046999.3,N
1525790855.1,286046998.6,N
1525790856.0,286046998.6,N
1525790875.8,286046998.2,N
1525790895.7,286047001.1,N
1525790915.5,286046999.6,N
1525790935.3,286046997.2,N
1525790955.2,286046995.4,N
1525790975.0,286046998.0,N
1525790975.9,286046998.0,N
1525790995.8,286046995.5,N
1525791015.6,286046995.7,N
1525791035.4,286046995.6,N
1525791055.3,286046995.6,N
1525791075.1,286046995.4,N
1525791095.8,286046995.2,N
1525791115.7,286046995.5,N
1525791135.5,286046995.5,N
1525791155.4,286046995.1,N
1525791175.2,286046995.4,N
1525791195.0,286046993.7,N
1525791195.9,286046993.7,N
1525791215.8,286046993.7,N
1525791235.6,286046993.3,N
1525791255.5,286046993.3,N
1525791275.3,286046995.9,N
1525791295.1,286046995.6,N
1525791315.9,286046995.6,N
1525791335.7,286046995.8,N
1525791355.5,286046993.9,Y
1525791375.4,286046998.7,P
1525791395.2,286046999.4,N
1525791415.1,286046998.9,N
1525791416.0,286046998.9,N
1525791435.8,286046998.1,N
1525791455.6,286047001.2,N
1525791475.5,286047000.4,N
1525791495.3,286046999.9,N
1525791515.1,286047000.2,N
1525791535.9,286047002.5,N
1525791555.7,286047000.1,N
1525791575.6,286047000.6,N
1525791595.4,286047001.2,N
